DECAYED

COSMOS 2251 DEB, 33989 (Decayed)

Orbit data source: Space-Track

COSMOS 2251 DEB, 33989 was space debris in LEO originally from a launch on Wed, 16 Jun 1993 UTC launched from the Plesetsk Missile And Space Complex (PKMTR). The debris from Iridium 33, an American commercial communications satellite, has been tracked extensively since its accidental collision with the defunct Russian satellite Cosmos 2251 in 2009. This event, occurring at high speed in low Earth orbit (LEO), generated thousands of pieces of space debris, significantly increasing the risk of further collisions. The Iridium 33 debris cloud has impacted space traffic management and orbital debris mitigation strategies, making it a subject of ongoing study in space situational awareness.

Not visible in the next 10 days
Identifier
33989, 1993-036FY
Orbit
Decayed
Country
Flag of CISCIS
Related business
Manufacturer
Unknown
Mission
Decayed spacecraft
Bus & Motor
Unknown
Mass
Unknown
Launch date (UTC)
1993-06-16 (33 years ago)
Launch vehicle
Unknown
Launch site
Plesetsk Missile And Space Complex (PKMTR)
Object type
Payload
Rocket body
Debris
Shape & HBR
Unknown shape, 0.1 m
Radar Cross Section
Medium (>0.1 m² and <1 m²)

Expand to show TLE details & history
Last TLE update: 1 year ago

TLE from 1 year ago
0 COSMOS 2251 DEB
1 33989U 93036FY  25001.40896596  .04151111  22317-1  15160-1 0  9992
2 33989  73.9751  57.0027 0021773 333.9987  26.0151 15.91917055847949
Epoch: 2025-01-01T09:48Z
TLE epoch observation values (Epoch: 2025-01-01T09:48:54.658Z)
Latitude
-0.0001°
Longitude
168.47227°
Altitude
286.654 km
Speed
7.743 km/s
True Right ascension
03h 48m 00s
True Declination
0° 00' 00"
Sunlit
Object was in full shadow at epoch
Visualization orbit readout
Latitude
Unknown
Longitude
Unknown
Altitude
Unknown
Speed
Unknown
Apparent Right ascension
Unknown
Apparent Declination
Unknown
Sunlit
N/A
Visualization observer readout
Local Sidereal Time
01:12:43
Azimuth
Unknown
Elevation
Unknown
Doppler factor
Unknown
Orbital elements
Apogee altitude
308.907 km
Perigee altitude
279.851 km
Semi-major axis
6,672.516 km
Eccentricity
0.00218
Inclination
73.9751°
RAAN
57.0027°
Arg. of periapsis
333.9987°
True anomaly
26.1248°
Mean anomaly
26.0151°
Eccentric anomaly
26.06992°
Mean motion
3.98207 °/min
Orbital period
90.41 mins
BSTAR
0.01516

Documentation

Showing up to 5 results
|